DW2715 Weather Reports


Display with metric or nautical units.
time (UTC)temp
F
wind
direction
speed
MPH
gust
MPH
rain 1hr
in
rain 24hr
in
rain mn
in
humidity
%
barometer
mb
20180817104132 86 183 1.0 4.0 0.00 0.00 0.00 46 1013.9
20180817103154 86 134 1.0 4.0 0.00 0.00 0.00 48 1013.9
20180817102136 86 179 1.0 5.0 0.00 0.00 0.00 47 1013.8
20180817101142 85 132 1.0 6.0 0.00 0.00 0.00 48 1013.8
20180817100202 84 78 1.0 6.0 0.00 0.00 0.00 49 1013.8
20180817095154 84 155 1.0 4.0 0.00 0.00 0.00 52 1013.8
20180817094120 83 238 1.0 4.0 0.00 0.00 0.00 51 1013.9
20180817093044 82 163 2.0 4.0 0.00 0.00 0.00 53 1013.9
20180817092048 81 187 1.0 5.0 0.00 0.00 0.00 54 1013.9
20180817091046 82 186 2.0 6.0 0.00 0.00 0.00 52 1014.0
20180817090020 81 88 2.0 6.0 0.00 0.00 0.00 53 1014.0
20180817085007 81 77 2.0 6.0 0.00 0.00 0.00 55 1014.0
20180817084009 80 40 1.0 6.0 0.00 0.00 0.00 54 1013.9
20180817082934 81 61 1.0 3.0 0.00 0.00 0.00 54 1014.0
20180817081910 80 96 1.0 3.0 0.00 0.00 0.00 53 1013.9
20180817080842 79 40 1.0 3.0 0.00 0.00 0.00 56 1014.0
20180817075814 79 24 1.0 4.0 0.00 0.00 0.00 56 1013.9
20180817074822 79 66 2.0 6.0 0.00 0.00 0.00 55 1013.9
20180817073809 79 101 2.0 6.0 0.00 0.00 0.00 56 1013.8
20180817072825 78 30 2.0 7.0 0.00 0.00 0.00 56 1013.8
20180817071752 78 5 2.0 7.0 0.00 0.00 0.00 57 1013.7
20180817070748 77 11 2.0 6.0 0.00 0.00 0.00 56 1013.7
20180817065722 77 61 1.0 4.0 0.00 0.00 0.00 57 1013.7
20180817064653 76 338 1.0 3.0 0.00 0.00 0.00 62 1013.8
20180817063616 76 343 1.0 3.0 0.00 0.00 0.00 62 1013.8
20180817062602 75 329 1.0 3.0 0.00 0.00 0.00 64 1013.8
20180817061530 74 317 1.0 3.0 0.00 0.00 0.00 65 1013.8
20180817060547 73 323 1.0 3.0 0.00 0.00 0.00 66 1013.8
20180817055559 73 349 0.0 2.0 0.00 0.00 0.00 68 1013.7
20180817054620 72 349 0.0 2.0 0.00 0.00 0.00 69 1013.7
20180817053641 71 349 0.0 1.0 0.00 0.00 0.00 70 1013.7
20180817052647 71 349 0.0 0.0 0.00 0.00 0.00 72 1013.7
20180817051635 70 349 0.0 2.0 0.00 0.00 0.00 72 1013.8
20180817050601 70 329 2.0 7.0 0.00 0.00 0.00 73 1013.7
20180817045532 70 338 1.0 4.0 0.00 0.00 0.00 73 1013.7
20180817044551 70 332 1.0 3.0 0.00 0.00 0.00 72 1013.7
20180817043608 70 336 1.0 3.0 0.00 0.00 0.00 72 1013.7
20180817042557 70 333 1.0 2.0 0.00 0.00 0.00 71 1013.7
20180817041615 70 333 0.0 2.0 0.00 0.00 0.00 71 1013.5
20180817040553 70 333 0.0 3.0 0.00 0.00 0.00 71 1013.5
20180817035600 70 333 1.0 3.0 0.00 0.00 0.00 71 1013.5
20180817034600 70 329 1.0 2.0 0.00 0.00 0.00 70 1013.4
20180817033619 71 329 1.0 2.0 0.00 0.00 0.00 70 1013.4
20180817032622 71 329 1.0 3.0 0.00 0.00 0.00 69 1013.4
20180817031550 71 329 1.0 3.0 0.00 0.00 0.00 68 1013.5
20180817030523 71 329 1.0 3.0 0.00 0.00 0.00 69 1013.4
20180817025513 71 329 0.0 1.0 0.00 0.00 0.00 69 1013.5
20180817024503 71 329 0.0 2.0 0.00 0.00 0.00 69 1013.5
20180817023504 71 329 0.0 2.0 0.00 0.00 0.00 70 1013.6
20180817022455 71 329 1.0 3.0 0.00 0.00 0.00 69 1013.6
20180817021508 71 298 1.0 3.0 0.00 0.00 0.00 70 1013.7
20180817020515 71 0 0.0 2.0 0.00 0.00 0.00 70 1013.6
20180817015447 72 0 0.0 2.0 0.00 0.00 0.00 69 1013.7
20180817014421 72 0 1.0 2.0 0.00 0.00 0.00 68 1013.6
20180817013430 72 0 0.0 3.0 0.00 0.00 0.00 68 1013.5
20180817012411 72 0 1.0 3.0 0.00 0.00 0.00 68 1013.4
20180817011431 72 0 1.0 3.0 0.00 0.00 0.00 68 1013.4
20180817010431 72 0 1.0 3.0 0.00 0.00 0.00 68 1013.4
20180817005419 72 355 1.0 3.0 0.00 0.00 0.00 68 1013.4
20180817004441 72 348 1.0 2.0 0.00 0.00 0.00 69 1013.5
20180817003501 73 348 0.0 2.0 0.00 0.00 0.00 69 1013.5
20180817002514 73 348 1.0 3.0 0.00 0.00 0.00 69 1013.5
20180817001509 73 348 1.0 4.0 0.00 0.00 0.00 69 1013.5
20180817000435 73 345 1.0 4.0 0.00 0.00 0.00 69 1013.5
20180816235410 73 344 1.0 6.0 0.00 0.00 0.00 69 1013.6
20180816234427 73 344 2.0 6.0 0.00 0.00 0.00 69 1013.7
20180816233427 73 338 0.0 2.0 0.00 0.00 0.00 70 1013.8
20180816232441 74 337 0.0 2.0 0.00 0.00 0.00 69 1013.7
20180816231502 74 338 0.0 2.0 0.00 0.00 0.00 68 1013.7
20180816230458 74 337 1.0 2.0 0.00 0.00 0.00 67 1013.7
20180816225456 74 338 0.0 1.0 0.00 0.00 0.00 68 1013.7
20180816224518 74 338 0.0 0.0 0.00 0.00 0.00 68 1013.8
20180816223449 74 338 0.0 1.0 0.00 0.00 0.00 67 1013.8
20180816222435 74 338 0.0 2.0 0.00 0.00 0.00 68 1013.9
20180816221441 75 338 0.0 3.0 0.00 0.00 0.00 68 1013.8
20180816220455 75 337 0.0 3.0 0.00 0.00 0.00 68 1013.8
20180816215451 75 107 0.0 1.0 0.00 0.00 0.00 69 1013.7
20180816214511 75 107 0.0 0.0 0.00 0.00 0.00 67 1013.7
20180816213510 75 107 0.0 0.0 0.00 0.00 0.00 67 1013.8
20180816212509 76 107 0.0 0.0 0.00 0.00 0.00 66 1013.7
20180816211507 76 107 0.0 0.0 0.00 0.00 0.00 66 1013.7
20180816210510 76 107 0.0 0.0 0.00 0.00 0.00 65 1013.7
20180816205451 77 107 0.0 0.0 0.00 0.00 0.00 64 1013.7
20180816204428 77 107 0.0 0.0 0.00 0.00 0.00 62 1013.7
20180816203401 79 107 0.0 1.0 0.00 0.00 0.00 59 1013.7
20180816202421 79 107 0.0 0.0 0.00 0.00 0.00 57 1013.6
20180816201407 79 107 0.0 0.0 0.00 0.00 0.00 55 1013.7
20180816200418 80 107 0.0 0.0 0.00 0.00 0.00 53 1013.7
20180816195432 82 107 0.0 0.0 0.00 0.00 0.00 52 1013.6
20180816194447 82 107 0.0 1.0 0.00 0.00 0.00 51 1013.6
20180816193447 81 107 0.0 0.0 0.00 0.00 0.00 54 1013.6
20180816192451 82 107 0.0 0.0 0.00 0.00 0.00 52 1013.6
20180816191456 82 107 0.0 0.0 0.00 0.00 0.00 52 1013.6
20180816190502 83 107 0.0 0.0 0.00 0.00 0.00 51 1013.5
20180816185433 83 107 0.0 0.0 0.00 0.00 0.00 50 1013.4
20180816184421 84 107 0.0 0.0 0.00 0.00 0.00 48 1013.3
20180816183402 84 107 0.0 1.0 0.00 0.00 0.00 46 1013.2
20180816182404 84 107 0.0 2.0 0.00 0.00 0.00 46 1013.0
20180816181340 85 107 0.0 2.0 0.00 0.00 0.00 45 1013.0
20180816180355 85 107 0.0 0.0 0.00 0.00 0.00 44 1012.9
20180816175348 85 107 0.0 0.0 0.00 0.00 0.00 44 1013.0
20180816174358 85 107 0.0 3.0 0.00 0.00 0.00 44 1013.0
20180816173357 85 107 0.0 1.0 0.00 0.00 0.00 45 1013.1
20180816172324 85 107 1.0 3.0 0.00 0.00 0.00 43 1013.0
20180816171322 85 136 1.0 6.0 0.00 0.00 0.00 43 1013.1
20180816170340 85 109 2.0 6.0 0.00 0.00 0.00 42 1013.2
20180816165326 86 94 2.0 7.0 0.00 0.00 0.00 42 1013.2
20180816164305 86 103 2.0 7.0 0.00 0.00 0.00 41 1013.2
20180816163246 87 115 2.0 6.0 0.00 0.00 0.00 41 1013.3
20180816162233 87 97 1.0 8.0 0.00 0.00 0.00 40 1013.4
20180816161238 87 152 2.0 8.0 0.00 0.00 0.00 41 1013.4
20180816160240 87 92 2.0 9.0 0.00 0.00 0.00 42 1013.5
20180816155303 87 136 3.0 9.0 0.00 0.00 0.00 42 1013.5
20180816154312 86 113 3.0 7.0 0.00 0.00 0.00 41 1013.6
20180816153248 87 106 3.0 8.0 0.00 0.00 0.00 40 1013.7
20180816152238 88 132 2.0 8.0 0.00 0.00 0.00 42 1013.7
20180816151202 86 105 3.0 8.0 0.00 0.00 0.00 41 1013.7
20180816150133 86 101 3.0 8.0 0.00 0.00 0.00 42 1013.7
20180816145139 87 89 2.0 8.0 0.00 0.00 0.00 41 1013.8
20180816144154 87 123 2.0 8.0 0.00 0.00 0.00 42 1013.8
20180816143207 88 142 2.0 7.0 0.00 0.00 0.00 42 1013.9
20180816142136 88 260 2.0 7.0 0.00 0.00 0.00 43 1014.1
20180816141133 87 150 3.0 8.0 0.00 0.00 0.00 41 1014.1
20180816140131 87 92 3.0 8.0 0.00 0.00 0.00 40 1014.2
20180816135143 87 71 2.0 7.0 0.00 0.00 0.00 41 1014.2
20180816134159 88 155 1.0 10.0 0.00 0.00 0.00 41 1014.2
20180816133129 86 94 4.0 10.0 0.00 0.00 0.00 42 1014.3
20180816132106 87 163 3.0 8.0 0.00 0.00 0.00 43 1014.4
20180816131109 87 107 2.0 10.0 0.00 0.00 0.00 41 1014.4
20180816130111 87 141 4.0 10.0 0.00 0.00 0.00 41 1014.6
20180816125123 87 202 2.0 9.0 0.00 0.00 0.00 41 1014.6
20180816124136 87 175 3.0 9.0 0.00 0.00 0.00 42 1014.6
20180816123118 87 118 3.0 8.0 0.00 0.00 0.00 42 1014.7
20180816122050 87 95 3.0 11.0 0.00 0.00 0.00 42 1014.7
20180816121055 86 124 5.0 11.0 0.00 0.00 0.00 42 1014.8
20180816120043 87 78 3.0 8.0 0.00 0.00 0.00 38 1014.8
20180816115013 87 84 3.0 10.0 0.00 0.00 0.00 40 1014.8
20180816114008 86 276 4.0 13.0 0.00 0.00 0.00 40 1014.9
20180816112939 86 104 5.0 13.0 0.00 0.00 0.00 38 1015.0
20180816111957 86 80 6.0 12.0 0.00 0.00 0.00 38 1015.1
20180816111015 86 126 5.0 12.0 0.00 0.00 0.00 39 1015.1
20180816110024 86 97 4.0 13.0 0.00 0.00 0.00 39 1015.2
20180816104954 85 98 4.0 13.0 0.00 0.00 0.00 40 1015.2